User: anonymous   Login
Location: Unspecified
(0.0000°N, 0.0000°E)
Time: 06:56:39
(UTC+01:00)
Language:

Cosmos 2219 Rocket - Orbit

View from above orbital plane
View from above orbital plane
View from above satellite
View from above satellite

Ground track
Ground track

The orbit data is extracted from the following two-line orbital elements,

1 22220U 92076B   14298.12823088  .00000383  00000-0  21711-3 0  4419
2 22220 071.0003 292.6213 0014970 300.8361 124.8760 14.16323713133981
Epoch (UTC): 25 October 2014 03:04:39
Eccentricity: 0.0014970
inclination: 71.0003°
perigee height: 827 km
apogee height: 848 km
right ascension of ascending node: 292.6213°
argument of perigee: 300.8361°
revolutions per day: 14.16323713
mean anomaly at epoch: 124.8760°
orbit number at epoch: 13398

The dashed part of the orbit path shows where the satellite is in the earth's shadow,  

DLR